sat.trackr.live / text

‹ back to catalog

STARLINK-33638

NORAD 63436 · 2025-069D

PAYLOAD ACTIVE UNKNOWN

§ Identity

Operator
Country
US
Launch date
2025-04-04
Launch site
AFWTR
Launch vehicle
Mass (kg)
RCS (m²)

Purposes: comms

External: N2YO · Heavens-Above · Gunter

§ Orbital elements

Epoch: 2026-05-25T03:24:24.955200Z

Period
93.37 min
Inclination
53.1581°
Eccentricity
0.0001570
Mean motion
15.42196604 rev/d
Perigee alt
438.6 km
Apogee alt
440.7 km
Semi-major
6,817.8 km
B*
9.9124e-4
RAAN
144.9683°
Arg perigee
86.7091°
Mean anomaly
273.4095°
Rev number
6,514

§ Raw data

STARLINK-336381 63436U 25069D   26145.14195550  .00043019  00000+0  99124-3 0  99962 63436  53.1581 144.9683 0001570  86.7091 273.4095 15.42196604 65140

JSON: /api/v1/satellites/63436 · /tle

For live sub-satellite position, see the globe view (requires WebGL).

§ Visibility from observer

Set your observer location to see the next 7 days of passes ≥ 10°. The values pass through the URL so the page stays shareable.

No JS? Fill the form by hand. The geolocation button needs JavaScript.